Temperature
15 15 15 15 15 14 14 14 14 14 14 14 14 13 13 13 13 13 13 13 13 13 13 13 13 13 12 12 12 12 12 12 12 12 12 12 12 12 12 11 11 11 11
15 15 15 15 14 14 14 14 14 14 13 13 13 13 13 13 13 13 13 13 13 13 13 13 12 12 12 12 12 12 12 12 12 12 12 12 12 12 11 11 11 11 11
15 15 15 14 14 14 14 13 13 13 13 13 13 13 13 13 13 13 13 13 12 12 12 12 12 12 12 12 12 12 12 12 12 11 11 11 11 11 11 11 11 10 10
15 15 14 14 14 14 13 13 13 13 13 13 13 12 12 12 12 12 12 12 12 12 12 12 12 12 12 12 12 11 11 11 11 11 11 11 11 11 11 11 10 10 10
15 14 14 14 14 13 13 13 13 13 12 12 12 12 12 12 12 12 12 12 12 12 12 12 12 12 11 11 11 11 11 11 11 11 11 11 11 11 11 10 10 10 10
14 14 14 14 13 13 13 13 12 12 12 12 12 12 12 12 12 12 12 12 12 12 12 11 11 11 11 11 11 11 11 11 11 10 10 10 10 10 10 10 10 10 9
14 14 14 13 13 13 13 12 12 12 12 12 12 12 12 11 11 11 11 11 11 11 11 11 11 11 11 11 11 10 10 10 10 10 10 10 10 10 10 10 10 10 10
14 14 13 13 13 12 12 12 12 12 12 11 11 11 11 11 11 11 11 11 11 11 10 10 10 10 10 10 10 10 10 10 10 10 10 10 10 10 10 10 10 9 9
13 13 13 13 12 12 12 12 12 11 11 11 11 11 11 11 11 11 11 10 10 10 10 10 10 10 10 10 10 10 10 10 10 10 10 9 9 9 9 9 9 9 9
13 13 13 12 12 12 12 11 11 11 11 11 11 11 11 11 11 10 10 10 10 10 10 10 10 10 10 10 10 10 10 10 10 9 9 9 9 9 9 9 9 9 8
13 12 12 12 12 11 11 11 11 11 11 10 10 10 10 10 10 10 10 10 10 10 10 9 9 9 9 9 9 9 9 9 9 9 9 9 9 9 9 9 9 8 8
12 12 12 11 11 11 11 10 10 10 10 10 10 10 10 10 10 9 9 9 9 9 9 9 9 9 9 9 9 9 9 9 8 8 8 8 8 9 9 8 8 8 8
11 11 11 11 10 10 10 10 10 10 10 9 9 9 9 9 9 9 9 9 9 9 9 8 8 8 8 8 8 8 8 8 8 8 8 8 8 8 8 8 8 8 8
11 10 10 10 10 9 9 9 9 9 9 9 9 8 8 8 8 9 9 9 8 8 8 8 8 8 8 8 8 8 8 8 8 8 8 8 8 7 7 7 7 7 7
10 10 9 9 9 9 9 9 9 9 8 8 8 8 8 8 8 8 8 8 8 8 8 7 7 7 7 7 7 7 7 7 7 7 7 7 7 7 7 7 7 7 6
9 9 9 9 8 8 8 8 8 8 8 8 8 8 8 8 8 8 7 7 7 7 7 7 7 7 7 7 7 7 7 7 7 7 7 7 7 6 6 6 6 6 6
9 8 8 8 8 8 8 8 7 7 7 7 7 7 7 7 7 7 7 7 7 7 6 6 6 6 6 6 6 6 6 6 6 6 6 6 6 6 6 6 6 6 5
8 8 8 8 7 7 7 7 7 7 7 7 7 7 7 7 6 6 6 6 6 6 6 6 6 6 6 6 6 6 6 6 6 5 5 5 5 5 5 5 5 5 5
8 8 7 7 7 7 7 6 6 6 6 6 6 6 6 6 6 6 6 6 6 6 6 6 6 6 6 6 5 5 5 5 5 5 5 5 5 5 5 5 5 5 4
7 7 7 7 7 6 6 6 6 6 6 6 6 6 6 5 5 5 5 5 5 5 5 5 5 5 5 5 5 5 4 4 4 4 4 4 4 4 4 4 4 4 4
7 6 6 6 6 6 6 5 5 5 5 5 5 5 5 5 5 5 5 4 4 5 5 5 4 4 5 4 4 4 4 4 4 4 4 4 4 4 4 4 4 4 4
6 6 6 5 5 5 5 5 5 5 5 4 4 4 4 4 4 4 4 4 4 4 4 4 4 4 4 4 4 4 3 3 3 3 3 3 3 3 3 3 3 3 3
5 5 5 5 5 4 4 4 4 4 4 4 4 4 4 4 4 3 3 3 3 3 3 3 3 3 3 3 3 3 3 3 3 3 2 2 2 2 3 3 3 3 3
5 5 4 4 4 4 4 4 4 3 3 3 3 3 3 3 3 3 3 2 3 3 3 3 3 3 3 3 3 3 2 2 2 2 2 2 2 2 2 2 2 2 2
4 4 4 4 4 3 3 3 3 3 3 3 2 2 2 2 2 2 2 2 2 2 2 2 2 2 2 2 2 2 2 2 2 2 2 1 1 2 1 1 1 1 1
4 3 3 3 3 3 3 2 2 2 2 2 2 2 2 2 2 2 2 2 2 2 2 2 2 2 2 2 1 1 1 1 1 1 1 1 1 1 1 1 1 1 1
Wind_Speed
4 4 3 3 2 2 2 1 1 1 1 2 2 2 2 2 3 2 2 3 3 3 2 2 3 2 1 1 1 1 1 1 1 1 0 2 3 2 3 5 6 8 8
4 3 3 3 2 2 2 2 2 2 1 1 1 1 2 2 2 2 2 2 2 3 3 3 3 2 1 1 0 1 1 1 2 1 1 2 3 4 4 3 4 6 7
5 4 4 4 4 4 3 2 2 1 1 1 1 1 2 2 2 2 3 3 3 3 2 3 3 3 2 2 2 1 1 1 1 2 1 1 2 2 3 2 2 3 5
5 5 4 4 3 3 2 2 2 1 1 1 1 1 1 1 1 1 2 3 3 3 2 2 2 3 3 3 3 3 2 1 1 1 1 1 1 2 2 2 2 2 3
5 4 4 4 3 3 2 2 2 1 1 1 1 1 1 0 1 1 2 3 3 3 2 2 1 3 3 3 2 2 2 2 1 1 1 1 1 2 3 3 3 3 3
5 5 4 3 2 3 3 2 2 2 2 1 1 1 1 1 0 1 2 3 3 3 3 3 2 3 3 3 3 3 3 3 3 3 2 3 3 3 2 3 3 2 2
4 4 4 3 3 3 3 2 2 3 2 2 2 2 2 2 2 2 3 3 3 3 3 3 2 3 4 3 3 4 4 5 5 4 4 4 4 4 3 3 3 3 4
3 3 3 3 3 3 3 3 3 3 2 3 3 3 2 2 2 3 4 4 4 3 3 3 2 1 2 2 3 4 5 5 6 5 4 4 3 3 4 5 4 3 2
2 2 3 3 3 3 3 4 3 2 2 3 3 3 3 3 3 3 3 3 4 4 4 2 2 2 2 2 2 3 4 5 6 7 7 6 4 4 3 2 2 2 2
1 2 3 3 3 3 4 3 2 3 3 3 3 3 3 3 3 3 4 3 3 4 3 2 3 2 2 2 2 3 5 5 4 4 5 5 4 4 5 4 5 3 2
1 1 1 2 3 3 3 2 2 3 3 3 3 3 3 3 3 4 5 3 3 3 3 3 3 3 4 4 4 4 5 4 3 3 4 4 4 3 4 4 4 4 4
0 1 1 2 2 2 2 2 2 2 3 3 3 2 2 2 2 3 4 4 3 3 3 3 3 4 4 5 5 5 5 3 2 2 3 4 4 4 4 4 5 6 6
1 1 2 2 2 2 2 2 2 2 2 2 2 2 2 1 1 1 3 4 4 3 4 5 5 6 5 4 6 6 4 3 3 3 4 5 4 4 3 3 4 4 5
1 2 2 1 1 1 1 1 2 2 2 2 2 2 2 1 0 1 1 2 4 4 5 6 7 6 5 5 4 4 4 4 4 4 4 3 2 2 3 3 3 2 3
2 2 2 1 1 1 1 2 2 2 2 3 3 2 2 3 3 2 1 2 2 4 4 3 2 2 2 3 3 3 3 3 4 3 3 3 3 3 3 3 2 2 3
2 2 1 1 1 1 1 2 3 3 3 3 3 3 3 4 4 4 4 4 5 5 2 2 3 3 3 3 3 3 2 3 3 3 3 3 3 4 3 2 2 3 4
3 2 1 1 1 2 1 2 2 3 4 3 4 5 5 5 5 5 6 5 5 4 3 3 4 4 3 3 2 2 2 2 2 3 3 4 3 3 3 3 3 3 4
3 3 2 1 1 2 2 2 2 2 3 3 4 5 6 6 6 7 6 3 2 3 3 4 4 4 3 3 3 3 3 3 2 3 3 3 3 3 3 3 4 4 4
3 1 1 1 1 2 2 2 2 3 3 3 2 3 5 6 6 7 4 2 4 4 4 4 4 3 3 3 3 3 3 3 3 3 3 3 3 3 4 4 4 5 5
2 2 2 1 1 2 2 2 2 2 2 2 2 2 1 1 2 3 3 3 4 4 4 4 3 3 3 3 3 3 3 3 3 3 3 3 3 3 4 4 4 4 4
2 2 3 2 2 2 2 2 2 2 2 2 3 2 2 2 3 3 3 3 3 4 4 3 3 3 3 2 3 3 4 3 3 3 3 3 3 3 4 4 4 4 4
1 1 1 2 2 2 2 2 2 2 3 3 3 2 3 2 2 3 3 3 3 3 3 2 3 2 2 3 3 3 4 4 3 3 3 3 4 4 4 4 4 4 4
1 1 2 2 2 3 3 2 2 3 3 3 3 2 2 2 3 3 3 3 3 3 3 2 3 3 3 2 3 3 3 3 3 3 4 4 4 4 4 4 5 5 5
2 2 2 2 2 2 2 2 3 3 3 3 3 3 2 2 3 4 3 3 2 2 2 2 3 4 4 3 3 3 2 3 3 3 4 4 4 4 4 4 5 5 5
2 2 3 2 2 2 2 3 3 3 3 3 3 3 3 3 3 3 3 3 3 2 3 3 3 3 5 6 5 3 4 5 5 4 3 4 5 5 5 5 5 5 5
2 3 3 3 2 2 2 3 3 3 3 4 3 3 3 3 3 3 3 3 3 3 3 3 4 5 6 6 6 6 6 6 6 6 5 4 5 5 5 5 5 5 5
Wind_Direction
187 189 187 177 173 172 177 195 213 225 190 197 202 201 196 199 191 185 225 224 227 224 226 226 229 214 181 221 240 294 264 179 205 280 188 153 139 142 151 168 172 176 189
186 188 189 174 176 190 197 205 207 208 201 218 208 214 223 212 197 178 217 234 230 232 225 216 219 204 184 184 196 266 276 209 168 216 242 173 173 177 163 181 186 190 191
184 190 196 189 191 202 208 210 201 194 202 216 216 230 236 225 217 197 203 228 231 235 225 214 206 183 194 191 184 223 242 211 146 173 226 215 186 175 160 196 206 200 203
181 191 197 197 193 193 191 197 182 168 172 198 228 242 247 230 247 249 234 232 232 232 235 230 219 187 194 193 197 207 199 175 157 161 195 234 209 190 158 190 231 232 233
182 194 199 196 191 178 176 184 169 154 191 218 218 250 276 229 295 308 287 272 250 238 227 225 229 185 182 181 193 194 183 175 167 171 193 234 235 190 204 203 212 231 239
187 190 187 188 185 177 180 192 182 181 205 230 229 220 233 246 249 299 307 291 278 254 232 226 217 202 197 195 193 184 181 190 194 191 205 214 230 220 206 205 202 203 248
184 179 174 180 185 193 196 193 192 198 197 217 240 228 214 212 227 258 275 282 273 268 247 233 249 224 194 195 206 209 220 226 206 195 210 220 218 214 195 211 210 205 227
178 174 175 185 187 193 198 206 213 214 205 210 223 228 212 214 227 252 257 257 269 274 266 235 222 219 206 196 204 215 223 224 223 219 223 229 229 211 195 204 216 219 247
182 180 187 194 194 197 208 216 219 211 215 223 217 224 220 221 225 241 235 245 255 265 274 271 240 213 242 220 225 232 236 244 235 228 229 237 248 244 205 171 191 200 247
196 206 205 202 201 204 215 220 219 212 219 224 228 233 220 213 219 226 218 235 250 259 266 271 269 246 243 217 219 245 245 245 241 238 239 245 245 240 219 196 193 205 225
203 205 204 209 211 210 214 216 216 216 221 227 228 230 216 214 221 224 211 217 247 254 255 256 259 254 244 230 222 234 248 255 236 223 226 232 231 225 218 221 208 203 213
171 230 230 225 233 226 199 216 227 224 228 234 233 237 236 224 212 217 210 224 256 261 261 253 260 260 248 239 235 250 263 267 241 227 233 231 228 229 225 222 227 227 228
243 243 247 256 247 232 216 210 215 223 230 241 242 239 249 252 259 234 235 247 263 260 268 275 280 282 266 243 244 247 247 239 231 235 240 239 232 229 223 224 234 239 249
258 259 259 256 295 297 279 250 236 243 241 241 249 252 252 262 280 328 283 269 273 278 281 283 282 272 257 250 250 241 231 228 223 230 240 246 249 234 225 216 222 229 244
274 268 271 270 261 290 312 308 274 265 238 232 242 247 244 246 244 257 263 260 261 263 285 280 275 275 261 262 248 235 226 230 237 240 240 246 245 242 237 217 212 217 228
284 279 271 252 250 249 254 320 329 289 275 241 235 241 256 242 243 252 267 274 274 273 267 260 256 257 248 252 255 252 246 242 244 243 244 242 243 243 243 233 216 220 234
300 293 284 265 257 250 243 245 279 306 308 288 262 255 254 254 254 257 261 268 270 255 236 241 243 246 248 249 255 258 258 259 261 255 250 247 245 244 236 232 226 228 236
315 302 292 263 251 252 253 257 254 259 278 291 283 258 255 254 261 266 266 270 264 227 228 236 240 245 250 251 245 249 255 256 250 253 256 251 242 241 237 231 226 228 235
320 318 305 291 267 262 263 260 264 270 277 278 276 269 256 254 262 267 254 241 249 248 238 236 239 244 249 249 249 252 256 256 256 251 251 254 250 245 244 242 240 241 237
321 326 333 308 280 279 283 285 285 290 295 293 291 285 283 276 266 265 245 241 249 254 253 252 249 249 251 253 252 251 256 259 261 257 255 257 253 248 250 248 245 243 241
326 313 320 319 310 303 296 284 280 280 284 286 287 291 296 264 251 253 250 249 251 257 258 255 255 256 253 257 258 255 256 258 256 258 257 254 254 253 249 247 250 247 247
314 306 306 302 299 288 284 283 288 285 280 281 287 288 279 277 267 266 259 257 254 257 269 261 256 255 253 247 250 254 253 253 256 260 265 263 258 254 252 249 251 255 252
329 318 308 301 299 298 294 298 300 300 303 302 298 297 290 285 286 284 281 274 261 256 254 257 262 258 258 261 261 255 255 257 256 258 264 267 263 258 255 254 254 257 253
325 312 299 294 295 295 299 303 302 299 297 297 299 296 290 284 284 286 286 285 278 269 253 250 255 259 263 268 268 264 272 288 285 267 262 263 263 261 257 257 257 257 255
318 305 296 291 292 293 291 289 290 296 300 297 294 294 291 287 289 291 291 288 282 274 269 260 252 258 263 264 264 263 280 290 290 291 267 255 257 258 258 258 257 259 258
313 311 307 310 311 309 303 298 297 298 297 298 300 301 301 299 298 301 302 300 296 288 282 270 262 264 269 268 266 268 270 274 276 278 274 258 255 256 254 253 255 255 257
Height
1516 1518 1519 1520 1521 1522 1523 1523 1523 1523 1523 1524 1524 1524 1525 1525 1525 1525 1525 1525 1526 1526 1527 1528 1528 1529 1529 1529 1529 1530 1531 1531 1531 1532 1533 1533 1533 1533 1533 1534 1534 1534 1534
1514 1515 1517 1518 1519 1519 1520 1520 1520 1521 1521 1521 1522 1522 1522 1522 1522 1522 1522 1522 1523 1523 1524 1524 1525 1526 1526 1526 1527 1527 1527 1528 1529 1529 1530 1530 1530 1531 1531 1531 1531 1531 1531
1511 1512 1514 1515 1515 1516 1517 1517 1518 1518 1518 1519 1519 1519 1519 1519 1519 1520 1520 1520 1520 1521 1521 1521 1522 1522 1523 1523 1523 1524 1525 1525 1526 1526 1526 1527 1528 1528 1528 1528 1528 1528 1528
1508 1509 1510 1511 1512 1513 1514 1515 1515 1515 1515 1515 1516 1516 1516 1516 1517 1517 1517 1517 1517 1518 1518 1518 1519 1519 1519 1520 1520 1521 1522 1522 1522 1523 1524 1524 1525 1525 1525 1525 1525 1524 1525
1505 1506 1507 1508 1509 1510 1511 1511 1512 1512 1513 1513 1513 1513 1513 1513 1513 1514 1514 1514 1514 1515 1515 1515 1516 1516 1516 1517 1517 1518 1518 1519 1519 1519 1520 1521 1521 1521 1521 1522 1522 1522 1522
1502 1503 1504 1505 1506 1507 1507 1508 1509 1509 1509 1510 1510 1510 1510 1510 1510 1511 1511 1511 1511 1511 1512 1512 1512 1512 1513 1513 1514 1514 1515 1516 1516 1516 1516 1517 1517 1518 1518 1518 1518 1518 1518
1499 1500 1501 1502 1502 1503 1504 1505 1505 1506 1506 1507 1507 1508 1507 1507 1507 1508 1508 1508 1508 1508 1508 1509 1509 1508 1509 1509 1510 1511 1511 1512 1513 1513 1513 1513 1514 1514 1514 1514 1514 1514 1514
1496 1497 1498 1498 1499 1500 1501 1501 1502 1503 1503 1504 1504 1504 1504 1504 1504 1504 1504 1504 1505 1505 1505 1506 1506 1505 1505 1506 1506 1507 1507 1508 1508 1509 1509 1510 1510 1510 1510 1511 1511 1511 1511
1493 1494 1494 1495 1495 1496 1497 1498 1499 1499 1500 1500 1500 1501 1501 1500 1501 1501 1501 1501 1501 1501 1502 1502 1502 1502 1501 1502 1502 1502 1503 1503 1504 1504 1505 1505 1506 1506 1506 1507 1507 1507 1506
1490 1491 1491 1491 1492 1492 1493 1494 1495 1496 1496 1496 1497 1497 1497 1497 1497 1497 1497 1497 1496 1497 1497 1497 1497 1498 1498 1497 1498 1498 1498 1498 1499 1499 1500 1500 1501 1501 1502 1502 1502 1502 1502
1488 1488 1488 1488 1488 1489 1489 1490 1491 1492 1492 1493 1493 1493 1493 1493 1493 1493 1493 1492 1492 1492 1492 1492 1493 1493 1493 1493 1493 1493 1493 1494 1494 1494 1495 1495 1495 1496 1497 1497 1498 1498 1498
1485 1485 1485 1485 1485 1486 1486 1486 1487 1488 1488 1489 1489 1489 1489 1489 1489 1489 1488 1488 1488 1488 1488 1488 1488 1489 1489 1489 1489 1489 1489 1490 1490 1490 1490 1490 1490 1491 1491 1492 1493 1493 1493
1482 1482 1482 1482 1482 1482 1482 1482 1483 1484 1484 1484 1485 1484 1484 1485 1485 1484 1484 1484 1484 1484 1483 1484 1484 1484 1484 1484 1484 1485 1485 1485 1485 1485 1485 1485 1485 1486 1486 1487 1487 1487 1488
1479 1479 1479 1479 1478 1478 1478 1478 1479 1479 1480 1480 1480 1480 1480 1480 1480 1480 1479 1479 1479 1479 1479 1479 1479 1480 1480 1480 1480 1480 1480 1480 1480 1480 1480 1480 1481 1481 1481 1481 1481 1481 1481
1476 1476 1476 1475 1475 1475 1475 1475 1475 1475 1476 1476 1476 1476 1476 1476 1476 1476 1475 1475 1475 1474 1474 1474 1474 1474 1474 1474 1474 1474 1474 1475 1475 1475 1475 1475 1475 1475 1475 1476 1476 1476 1476
1473 1472 1472 1472 1472 1472 1471 1471 1471 1472 1472 1472 1472 1472 1472 1472 1472 1471 1471 1471 1470 1470 1470 1469 1469 1470 1469 1469 1469 1469 1469 1469 1469 1470 1470 1470 1470 1470 1470 1470 1471 1471 1470
1469 1469 1469 1468 1468 1468 1468 1467 1467 1467 1468 1468 1467 1467 1468 1467 1467 1467 1466 1466 1466 1466 1465 1465 1465 1465 1465 1464 1465 1465 1464 1464 1465 1464 1465 1465 1465 1465 1465 1465 1465 1465 1465
1466 1466 1465 1465 1464 1464 1464 1464 1464 1464 1463 1463 1463 1463 1463 1463 1463 1462 1462 1462 1461 1461 1461 1460 1460 1460 1460 1460 1460 1460 1460 1460 1460 1460 1460 1460 1460 1460 1460 1460 1460 1460 1460
1463 1462 1462 1462 1461 1461 1461 1461 1461 1460 1460 1459 1459 1459 1459 1459 1459 1458 1458 1457 1457 1456 1456 1456 1456 1455 1456 1456 1456 1456 1456 1456 1456 1455 1455 1455 1455 1455 1455 1455 1455 1455 1456
1460 1460 1459 1459 1458 1458 1458 1457 1457 1457 1456 1456 1455 1455 1455 1455 1454 1453 1453 1453 1452 1452 1452 1451 1451 1451 1451 1451 1451 1451 1451 1451 1451 1451 1450 1450 1450 1450 1450 1450 1450 1450 1450
1458 1457 1457 1456 1455 1455 1454 1454 1454 1453 1453 1452 1452 1452 1451 1451 1450 1449 1449 1448 1448 1448 1447 1447 1447 1446 1446 1446 1446 1446 1446 1446 1446 1446 1445 1445 1445 1445 1445 1445 1445 1445 1446
1455 1454 1454 1453 1452 1452 1451 1451 1451 1450 1450 1449 1448 1448 1448 1447 1446 1445 1445 1444 1444 1443 1443 1443 1442 1442 1442 1442 1441 1441 1441 1440 1440 1440 1440 1440 1440 1440 1440 1440 1440 1440 1440
1453 1452 1451 1450 1450 1449 1449 1448 1447 1447 1446 1445 1445 1444 1444 1443 1442 1441 1441 1440 1439 1439 1438 1438 1437 1437 1437 1437 1436 1436 1435 1435 1435 1435 1435 1435 1435 1435 1435 1435 1435 1435 1435
1450 1449 1448 1447 1446 1446 1445 1444 1444 1443 1442 1441 1441 1440 1439 1438 1438 1437 1436 1435 1435 1434 1433 1433 1432 1432 1432 1432 1431 1431 1431 1430 1430 1430 1430 1429 1429 1429 1429 1429 1430 1430 1430
1446 1446 1445 1444 1443 1442 1441 1440 1440 1439 1438 1437 1436 1435 1435 1434 1433 1432 1432 1431 1430 1429 1428 1428 1427 1427 1427 1426 1426 1426 1425 1425 1425 1424 1424 1424 1424 1424 1424 1424 1424 1424 1424
1442 1442 1441 1440 1439 1438 1437 1436 1435 1435 1434 1433 1432 1431 1430 1429 1428 1428 1427 1426 1425 1424 1424 1423 1422 1422 1421 1421 1421 1420 1420 1420 1419 1419 1418 1418 1418 1418 1419 1419 1419 1419 1419